Time,TemperatureF,DewpointF,PressureIn,WindDirection,WindDirectionDegrees,WindSpeedMPH,WindSpeedGustMPH,Humidity,HourlyPrecipIn,Conditions,Clouds,dailyrainin,SolarRadiationWatts/m^2,SoftwareType,DateUTC
2013-09-12 00:21:00,62.0,55.0,30.14,South,178,2.0,4.0,78,0.00,,,0.00,0.000000,,2013-09-12 07:21:00,
2013-09-12 00:32:00,62.0,55.0,30.14,South,178,2.0,4.0,78,0.00,,,0.00,0.000000,,2013-09-12 07:32:00,
2013-09-12 00:43:00,62.0,55.0,30.14,South,178,2.0,4.0,78,0.00,,,0.00,0.000000,,2013-09-12 07:43:00,
2013-09-12 00:52:00,62.0,55.0,30.14,South,178,2.0,4.0,78,0.00,,,0.00,0.000000,,2013-09-12 07:52:00,
2013-09-12 01:22:00,62.0,55.0,30.13,SE,138,5.0,7.0,78,0.00,,,0.00,0.000000,,2013-09-12 08:22:00,
2013-09-12 01:32:00,62.0,55.0,30.13,SE,138,5.0,7.0,78,0.00,,,0.00,0.000000,,2013-09-12 08:32:00,
2013-09-12 01:42:00,62.0,55.0,30.13,SE,138,5.0,7.0,78,0.00,,,0.00,0.000000,,2013-09-12 08:42:00,
2013-09-12 01:51:00,62.0,55.0,30.13,SE,138,5.0,7.0,78,0.00,,,0.00,0.000000,,2013-09-12 08:51:00,
2013-09-12 02:21:00,64.0,57.0,30.12,SSE,161,3.0,8.0,77,0.00,,,0.00,0.000000,,2013-09-12 09:21:00,
2013-09-12 02:33:00,64.0,57.0,30.12,SSE,161,3.0,8.0,77,0.00,,,0.00,0.000000,,2013-09-12 09:33:00,
2013-09-12 02:43:00,64.0,57.0,30.12,SSE,161,3.0,8.0,77,0.00,,,0.00,0.000000,,2013-09-12 09:43:00,
2013-09-12 02:53:00,64.0,57.0,30.12,SSE,161,3.0,8.0,77,0.00,,,0.00,0.000000,,2013-09-12 09:53:00,
2013-09-12 03:23:00,63.0,56.0,30.11,East,95,3.0,4.0,79,0.00,,,0.00,0.000000,,2013-09-12 10:23:00,
2013-09-12 03:33:00,63.0,56.0,30.11,East,95,3.0,4.0,79,0.00,,,0.00,0.000000,,2013-09-12 10:33:00,
2013-09-12 03:43:00,63.0,56.0,30.11,East,95,3.0,4.0,79,0.00,,,0.00,0.000000,,2013-09-12 10:43:00,
2013-09-12 03:53:00,63.0,56.0,30.11,East,95,3.0,4.0,79,0.00,,,0.00,0.000000,,2013-09-12 10:53:00,
2013-09-12 04:22:00,63.0,55.0,30.10,East,100,3.0,4.0,74,0.00,,,0.00,0.000000,,2013-09-12 11:22:00,
2013-09-12 04:33:00,63.0,55.0,30.10,East,100,3.0,4.0,74,0.00,,,0.00,0.000000,,2013-09-12 11:33:00,
2013-09-12 04:42:00,63.0,55.0,30.10,East,100,3.0,4.0,74,0.00,,,0.00,0.000000,,2013-09-12 11:42:00,
2013-09-12 04:52:00,63.0,55.0,30.10,East,100,3.0,4.0,74,0.00,,,0.00,0.000000,,2013-09-12 11:52:00,
2013-09-12 05:22:00,64.0,56.0,30.10,ENE,77,7.0,7.0,76,0.00,,,0.00,0.000000,,2013-09-12 12:22:00,
2013-09-12 05:31:00,64.0,56.0,30.10,ENE,77,7.0,7.0,76,0.00,,,0.00,0.000000,,2013-09-12 12:31:00,
2013-09-12 06:22:00,64.0,52.0,30.10,ENE,65,6.0,9.0,65,0.00,,,0.00,0.000000,,2013-09-12 13:22:00,
2013-09-12 06:32:00,64.0,52.0,30.10,ENE,65,6.0,9.0,65,0.00,,,0.00,0.000000,,2013-09-12 13:32:00,
2013-09-12 09:23:00,70.0,55.0,30.14,ESE,105,5.0,10.0,60,-99.99,,,0.00,212.000000,,2013-09-12 16:23:00,
2013-09-12 09:33:00,70.0,55.0,30.14,ESE,105,5.0,10.0,60,-99.99,,,0.00,212.000000,,2013-09-12 16:33:00,
2013-09-12 09:43:00,70.0,55.0,30.14,ESE,105,5.0,10.0,60,-99.99,,,0.00,212.000000,,2013-09-12 16:43:00,
2013-09-12 09:53:00,70.0,55.0,30.14,ESE,105,5.0,10.0,60,-99.99,,,0.00,212.000000,,2013-09-12 16:53:00,
2013-09-12 10:23:00,80.0,57.0,30.14,NE,49,4.0,9.0,45,0.00,,,0.00,465.000000,,2013-09-12 17:23:00,
2013-09-12 10:33:00,80.0,57.0,30.14,NE,49,4.0,9.0,45,0.00,,,0.00,465.000000,,2013-09-12 17:33:00,
2013-09-12 10:42:00,80.0,57.0,30.14,NE,49,4.0,9.0,45,0.00,,,0.00,465.000000,,2013-09-12 17:42:00,
2013-09-12 10:53:00,80.0,57.0,30.14,NE,49,4.0,9.0,45,0.00,,,0.00,465.000000,,2013-09-12 17:53:00,
2013-09-12 11:22:00,83.0,54.0,30.14,ESE,118,5.0,10.0,37,0.00,,,0.00,645.000000,,2013-09-12 18:22:00,
2013-09-12 11:32:00,83.0,54.0,30.14,ESE,118,5.0,10.0,37,0.00,,,0.00,645.000000,,2013-09-12 18:32:00,
2013-09-12 11:42:00,83.0,54.0,30.14,ESE,118,5.0,10.0,37,0.00,,,0.00,645.000000,,2013-09-12 18:42:00,
2013-09-12 11:52:00,83.0,54.0,30.14,ESE,118,5.0,10.0,37,0.00,,,0.00,645.000000,,2013-09-12 18:52:00,
2013-09-12 12:22:00,87.0,54.0,30.13,SSE,150,5.0,11.0,32,0.00,,,0.00,768.000000,,2013-09-12 19:22:00,
2013-09-12 12:32:00,87.0,54.0,30.13,SSE,150,5.0,11.0,32,0.00,,,0.00,768.000000,,2013-09-12 19:32:00,
2013-09-12 12:42:00,87.0,54.0,30.13,SSE,150,5.0,11.0,32,0.00,,,0.00,768.000000,,2013-09-12 19:42:00,
2013-09-12 12:52:00,87.0,54.0,30.13,SSE,150,5.0,11.0,32,0.00,,,0.00,768.000000,,2013-09-12 19:52:00,
2013-09-12 13:22:00,91.0,50.0,30.11,NW,317,5.0,14.0,25,0.00,,,0.00,803.000000,,2013-09-12 20:22:00,
2013-09-12 13:32:00,91.0,50.0,30.11,NW,317,5.0,14.0,25,0.00,,,0.00,803.000000,,2013-09-12 20:32:00,
2013-09-12 13:42:00,91.0,50.0,30.11,NW,317,5.0,14.0,25,0.00,,,0.00,803.000000,,2013-09-12 20:42:00,
2013-09-12 13:52:00,91.0,50.0,30.11,NW,317,5.0,14.0,25,0.00,,,0.00,803.000000,,2013-09-12 20:52:00,
2013-09-12 14:22:00,90.0,50.0,30.08,WNW,297,9.0,15.0,26,0.00,,,0.00,761.000000,,2013-09-12 21:22:00,
2013-09-12 14:34:00,90.0,50.0,30.08,WNW,297,9.0,15.0,26,0.00,,,0.00,761.000000,,2013-09-12 21:34:00,
2013-09-12 14:43:00,90.0,50.0,30.08,WNW,297,9.0,15.0,26,0.00,,,0.00,761.000000,,2013-09-12 21:43:00,
2013-09-12 14:54:00,90.0,50.0,30.08,WNW,297,9.0,15.0,26,0.00,,,0.00,761.000000,,2013-09-12 21:54:00,
2013-09-12 15:24:00,89.0,50.0,30.07,WNW,289,11.0,18.0,26,0.00,,,0.00,682.000000,,2013-09-12 22:24:00,
2013-09-12 15:33:00,89.0,50.0,30.07,WNW,289,11.0,18.0,26,0.00,,,0.00,682.000000,,2013-09-12 22:33:00,
2013-09-12 15:43:00,89.0,50.0,30.07,WNW,289,11.0,18.0,26,0.00,,,0.00,682.000000,,2013-09-12 22:43:00,
2013-09-12 15:54:00,89.0,50.0,30.07,WNW,289,11.0,18.0,26,0.00,,,0.00,682.000000,,2013-09-12 22:54:00,
2013-09-12 16:23:00,88.0,47.0,30.06,WNW,293,8.0,18.0,24,0.00,,,0.00,530.000000,,2013-09-12 23:23:00,
2013-09-12 16:34:00,88.0,47.0,30.06,WNW,293,8.0,18.0,24,0.00,,,0.00,530.000000,,2013-09-12 23:34:00,
2013-09-12 16:42:00,88.0,47.0,30.06,WNW,293,8.0,18.0,24,0.00,,,0.00,530.000000,,2013-09-12 23:42:00,
2013-09-12 16:52:00,88.0,47.0,30.06,WNW,293,8.0,18.0,24,0.00,,,0.00,530.000000,,2013-09-12 23:52:00,
2013-09-12 17:22:00,90.0,50.0,30.05,ENE,75,8.0,15.0,26,0.00,,,0.00,285.000000,,2013-09-13 00:22:00,
2013-09-12 17:32:00,90.0,50.0,30.05,ENE,75,8.0,15.0,26,0.00,,,0.00,285.000000,,2013-09-13 00:32:00,
2013-09-12 17:42:00,90.0,50.0,30.05,ENE,75,8.0,15.0,26,0.00,,,0.00,285.000000,,2013-09-13 00:42:00,
2013-09-12 17:52:00,90.0,50.0,30.05,ENE,75,8.0,15.0,26,0.00,,,0.00,285.000000,,2013-09-13 00:52:00,
2013-09-12 18:22:00,85.0,46.0,30.05,East,87,8.0,16.0,26,0.00,,,0.00,42.000000,,2013-09-13 01:22:00,
2013-09-12 18:32:00,85.0,46.0,30.05,East,87,8.0,16.0,26,0.00,,,0.00,42.000000,,2013-09-13 01:32:00,
2013-09-12 18:42:00,85.0,46.0,30.05,East,87,8.0,16.0,26,0.00,,,0.00,42.000000,,2013-09-13 01:42:00,
2013-09-12 18:52:00,85.0,46.0,30.05,East,87,8.0,16.0,26,0.00,,,0.00,42.000000,,2013-09-13 01:52:00,
2013-09-12 19:22:00,79.0,44.0,30.05,ENE,70,6.0,13.0,29,0.00,,,0.00,0.000000,,2013-09-13 02:22:00,
2013-09-12 19:32:00,79.0,44.0,30.05,ENE,70,6.0,13.0,29,0.00,,,0.00,0.000000,,2013-09-13 02:32:00,
2013-09-12 19:42:00,79.0,44.0,30.05,ENE,70,6.0,13.0,29,0.00,,,0.00,0.000000,,2013-09-13 02:42:00,
2013-09-12 19:53:00,79.0,44.0,30.05,ENE,70,6.0,13.0,29,0.00,,,0.00,0.000000,,2013-09-13 02:53:00,
2013-09-12 20:22:00,72.0,43.0,30.04,NE,48,7.0,12.0,35,0.00,,,0.00,0.000000,,2013-09-13 03:22:00,
2013-09-12 20:34:00,72.0,43.0,30.04,NE,48,7.0,12.0,35,0.00,,,0.00,0.000000,,2013-09-13 03:34:00,
2013-09-12 20:44:00,72.0,43.0,30.04,NE,48,7.0,12.0,35,0.00,,,0.00,0.000000,,2013-09-13 03:44:00,
2013-09-12 20:55:00,72.0,43.0,30.04,NE,48,7.0,12.0,35,0.00,,,0.00,0.000000,,2013-09-13 03:55:00,
2013-09-12 21:24:00,73.0,41.0,30.05,ENE,69,7.0,14.0,32,0.00,,,0.00,0.000000,,2013-09-13 04:24:00,
2013-09-12 21:34:00,73.0,41.0,30.05,ENE,69,7.0,14.0,32,0.00,,,0.00,0.000000,,2013-09-13 04:34:00,
2013-09-12 21:44:00,73.0,41.0,30.05,ENE,69,7.0,14.0,32,0.00,,,0.00,0.000000,,2013-09-13 04:44:00,
2013-09-12 21:54:00,73.0,41.0,30.05,ENE,69,7.0,14.0,32,0.00,,,0.00,0.000000,,2013-09-13 04:54:00,